STARLINK-1191, 45222

Orbit data source: Space-Track

STARLINK-1191, 45222 is a payload satellite owned by SpaceX/Seattle (US) in LEO that was launched on Mon, 17 Feb 2020 UTC via an FALCON 9 launch vehicle from the Air Force Eastern Test Range (AFETR). Payload-class satellites include a variety of spacecraft equipped with specific instruments for various scientific and technological missions. These include communications satellites like Starlink; space stations such as the ISS; scientific satellites like the Hubble; Earth observation satellites from companies like Planet Labs, Umbra, and HawkEye 360; GPS; miniature CubeSats for education and research; and military/defense satellites.

Loading next visibility...
Identifier
45222, 2020-012AW
Orbit
LEO
Country
Flag of USUS
Related business
Manufacturer
SpaceX/Seattle
Mission
Operational Commercial Communications
Bus & Motor
STARLINK, Unknown motor
Mass
260 kg wet, ~248 kg dry
Launch date (UTC)
2020-02-17 (6 years ago)
Launch vehicle
FALCON 9
Launch site
Air Force Eastern Test Range (AFETR)
Object type
Payload
Rocket body
Debris
Shape & HBR
Box + 1 Pan, 10.1 m
Radar Cross Section
13.562 m², Large (>1 m²)

Expand to show TLE details & history
Last TLE update: 10 hours ago

TLE from 10 hours ago
0 STARLINK-1191
1 45222U 20012AW  26073.89432635  .00050885  00000-0  17015-2 0  9990
2 45222  53.1599 334.6482 0001190 108.4279 251.6852 15.30519845336317
Epoch: 2026-03-14T21:27Z
TLE epoch observation values (Epoch: 2026-03-14T21:27:49.796Z)
Latitude
0.00002°
Longitude
-159.81823°
Altitude
475.416 km
Speed
7.629 km/s
True Right ascension
22h 18m 35s
True Declination
0° 00' 00"
Sunlit
Object was in daylight at epoch
Visualization orbit readout
Latitude
Unknown
Longitude
Unknown
Altitude
Unknown
Speed
Unknown
Apparent Right ascension
Unknown
Apparent Declination
Unknown
Sunlit
N/A
Visualization observer readout
Local Sidereal Time
12:00:08
Azimuth
Unknown
Elevation
Unknown
Doppler factor
Unknown
Orbital elements
Apogee altitude
475.332 km
Perigee altitude
473.701 km
Semi-major axis
6,852.654 km
Eccentricity
0.00012
Inclination
53.1599°
RAAN
334.6482°
Arg. of periapsis
108.4279°
True anomaly
251.67225°
Mean anomaly
251.6852°
Eccentric anomaly
251.67873°
Mean motion
3.82609 °/min
Orbital period
94.09 mins
BSTAR
0.0017015
Loading maneuver chart data...
Computing Atmospheric mass density...
Loading historical data...
Loading historical data...
Loading historical data...
Loading historical data...
Loading historical data...
Loading historical data...
Loading historical data...

Documentation

Showing up to 5 results
|